{"data":{"norad_id":67543,"intl_designator":"2026-014M","name":"STARLINK-36581","alt_names":[],"object_type":"PAYLOAD","status":"ACTIVE","operator":null,"country":"US","launch_date":"2026-01-22","launch_site_code":"AFWTR","launch_vehicle":null,"mission":null,"orbit_class":"UNKNOWN","rcs_meters":null,"size_class":null,"mass_kg":null,"dimensions":null,"purposes":["comms"],"wikipedia_slug":null,"has_3d_model":false,"image_url":null,"decayed_at":null,"tle_current":{"epoch":"2026-09-18T02:55:16.775616Z","epoch_age_seconds":277788,"freshness":"STALE","line1":"1 67543U 26014M   26261.12172194  .00024959  00000+0  77262-3 0  9997","line2":"2 67543  97.2851 146.5190 0001318  58.5875 301.5497 15.33455203 38276","mean_motion":15.33455203,"eccentricity":0.0001318,"inclination_deg":97.2851,"raan_deg":146.519,"arg_perigee_deg":58.5875,"mean_anomaly_deg":301.5497,"bstar":0.00077262,"rev_number":3827,"period_min":93.905579842361,"perigee_km":464.6108246509,"apogee_km":466.41481074284,"semimajor_km":6843.6498176969,"source":"CELESTRAK","updated_at":"2026-09-20T09:00:43.568874Z"}}}